Showing default

CARTOSAT 2D, 41948

Orbit data source: Space-Track

CARTOSAT 2D, 41948 is a payload satellite owned by ISRO (IN) in SSO that was launched on Wed, 15 Feb 2017 UTC via a PSLV-XL launch vehicle from the Sirharikota (SRI). Payload-class satellites include a variety of spacecraft equipped with specific instruments for various scientific and technological missions. These include communications satellites like Starlink; space stations such as the ISS; scientific satellites like the Hubble; Earth observation satellites from companies like Planet Labs, Umbra, and HawkEye 360; GPS; miniature CubeSats for education and research; and military/defense satellites.

Loading next visibility...
Identifier
41948, 2017-008A
Orbit
SSO
Country
Flag of ININ / IND
Related business
Manufacturer
ISRO
Mission
Operational Defense Imaging
Bus & Motor
IRS-2, AOCS
Mass
714 kg wet, 639 kg dry
Launch date (UTC)
2017-02-15 (9 years ago)
Launch vehicle
PSLV-XL
Launch site
Sirharikota (SRI)
Object type
Payload
Rocket body
Debris
Shape & HBR
Hex Cyl + 2 Pan, 4.0 m
Radar Cross Section
9.780 m², Large (>1 m²)

Expand to show TLE details & history
Last TLE update: 8 hours ago

TLE from 8 hours ago
0 CARTOSAT 2D
1 41948U 17008A   25346.96261633  .00006779  00000-0  32462-3 0  9997
2 41948  97.4392  44.4560 0004702 161.2166 198.9243 15.19261797489309
Epoch: 2025-12-12T23:06Z
TLE epoch observation values (Epoch: 2025-12-12T23:06:10.050Z)
Latitude
-0.00005°
Longitude
-23.98258°
Altitude
514.222 km
Speed
7.605 km/s
True Right ascension
02h 57m 49s
True Declination
0° 00' 00"
Sunlit
Object was in full shadow at epoch
Visualization orbit readout
Latitude
Unknown
Longitude
Unknown
Altitude
Unknown
Speed
Unknown
Apparent Right ascension
Unknown
Apparent Declination
Unknown
Sunlit
N/A
Visualization observer readout
Local Sidereal Time
05:23:53
Azimuth
Unknown
Elevation
Unknown
Doppler factor
Unknown
Orbital elements
Apogee altitude
508.275 km
Perigee altitude
501.802 km
Semi-major axis
6,883.176 km
Eccentricity
0.00047
Inclination
97.4392°
RAAN
44.456°
Arg. of periapsis
161.2166°
True anomaly
198.90684°
Mean anomaly
198.9243°
Eccentric anomaly
198.91557°
Mean motion
3.80067 °/min
Orbital period
94.72 mins
BSTAR
0.00032462
Loading maneuver chart data...
Computing Atmospheric mass density...

Documentation

Showing up to 5 results
|